Regional Weather Roundup
Issued by NWS

Home | Current Version | Previous Version | Graphics & Text | Print | Product List | Glossary Off
Versions: 1 2 3 4 5 6 7 8 9 10 11 12 13 14 15 16 17 18 19 20 21 22 23 24 25 26 27 28 29 30 31 32 33 34 35 36 37 38 39 40 41 42 43 44 45 46 47 48 49 50

000
ASUS43 KTOP 300459
RWRKS

WEATHER ROUNDUP FOR KANSAS
NATIONAL WEATHER SERVICE GOODLAND KS
1200 AM CDT MON MAY 30 2016

NOTE:  "FAIR" INDICATES FEW OR NO CLOUDS BELOW 12,000 FEET WITH NO
SIGNIFICANT WEATHER AND/OR OBSTRUCTIONS TO VISIBILITY.

KSZ001>006-013>018-027>032-041>047-300600-
NORTHWEST KANSAS

CITY           SKY/WX    TMP DP  RH WIND       PRES   REMARKS
GOODLAND       CLOUDY    58  50  75 N16       30.11R
HAYS           CLOUDY    61  52  72 SE6       30.06F
HILL CITY      CLOUDY    66  53  63 SE10      30.07F
$$

KSZ061>065-074>080-084>089-300600-
SOUTHWEST KANSAS

CITY           SKY/WX    TMP DP  RH WIND       PRES   REMARKS
DODGE CITY     CLOUDY    58  50  75 S10       30.09F
ELKHART          N/A     57  50  78 SW14        N/A
GARDEN CITY    PTCLDY    58  50  75 SW8       30.10R
GREAT BEND     CLOUDY    66  55  68 S6        30.06F
LIBERAL        CLOUDY    55  46  71 SW6       30.10F
$$

KSZ066>073-081>083-090>101-300600-
SOUTHEAST KANSAS

CITY           SKY/WX    TMP DP  RH WIND       PRES   REMARKS
CHANUTE        CLEAR     67  64  90 CALM      30.06F
COFFEYVILLE    CLOUDY    67  66  97 CALM      30.06F
HUTCHINSON     CLOUDY    68  58  70 S3        30.07F
MEDICINE LODGE   N/A     67  61  81 CALM      30.07F
NEWTON         PTCLDY    64  54  68 SE7       30.10F
PARSONS        CLOUDY    65  64  97 CALM      30.07F
WICHITA INTL   CLOUDY    67  59  75 CALM      30.06F
WICHITA JABRA  CLOUDY    62  60  93 NE5       30.06F
WINFIELD       CLOUDY    70  63  78 CALM      30.07F
$$

KSZ007>012-019>026-033>040-048>060-102>105-300600-
NORTHEAST KANSAS

CITY           SKY/WX    TMP DP  RH WIND       PRES   REMARKS
CONCORDIA      CLOUDY    66  61  84 NE3       30.07R
EMPORIA        PTCLDY    65  63  93 S7        30.07R
LAWRENCE       CLOUDY    64  61  90 CALM      30.05S
MANHATTAN      PTCLDY    66  61  84 SW3       30.07R
OLATHE IND     PTCLDY    66  61  84 S5        30.06F
OLATHE EXE     CLEAR     69  60  73 CALM      30.06F
SALINA         CLOUDY    66  61  84 S3        30.06F
TOPEKA BILLARD CLOUDY    68  65  90 CALM      30.05S
TOPEKA FORBES  CLOUDY    68  65  90 S5        30.06R
$$



USA.gov is the U.S. government's official web portal to all federal, state and local government web resources and services.